Location: Griffin Ranch
(33.6186°N, 110.6622°W)
Time: 06:48:52
(UTC-07:00)

Cosmos 1812 - Visible Passes

Search period start: 23 July 2014 00:00
Search period end: 02 August 2014 00:00
Orbit: 534 x 542 km, 82.5° (Epoch: 22 July)

Date Brightness Start Highest point End Pass type
(mag) Time Alt. Az. Time Alt. Az. Time Alt. Az.
23 Jul 5.2 22:01:59 10° NNE 22:02:57 15° NE 22:02:57 15° NE visible
23 Jul 6.0 23:38:19 10° NW 23:38:26 11° NW 23:38:26 11° NW visible
24 Jul 5.1 21:53:59 10° NNE 21:55:04 15° NE 21:55:04 15° NE visible
24 Jul 5.9 23:30:17 10° NW 23:30:33 11° NW 23:30:33 11° NW visible
25 Jul 5.0 21:45:58 10° NNE 21:47:12 16° NE 21:47:12 16° NE visible
25 Jul 5.9 23:22:15 10° NW 23:22:41 12° NW 23:22:41 12° NW visible
26 Jul 4.9 21:37:57 10° NNE 21:39:21 17° NE 21:39:21 17° NE visible
26 Jul 5.8 23:14:13 10° NW 23:14:49 13° NW 23:14:49 13° NW visible
27 Jul 4.8 21:29:57 10° NNE 21:31:30 17° NE 21:31:30 17° NE visible
27 Jul 5.7 23:06:11 10° NW 23:06:59 13° NW 23:06:59 13° NW visible
28 Jul 4.7 21:21:56 10° NNE 21:23:40 18° NE 21:23:40 18° NE visible
28 Jul 5.6 22:58:09 10° NW 22:59:09 14° NW 22:59:09 14° NW visible
29 Jul 4.6 21:13:55 10° NNE 21:15:52 19° NE 21:15:52 19° NE visible
29 Jul 5.6 22:50:07 10° NW 22:51:20 15° WNW 22:51:20 15° WNW visible
30 Jul 4.5 21:05:53 10° NNE 21:08:04 20° ENE 21:08:04 20° ENE visible
30 Jul 5.5 22:42:04 10° NW 22:43:33 16° WNW 22:43:33 16° WNW visible
31 Jul 4.4 20:57:52 10° NNE 21:00:17 20° ENE 21:00:17 20° ENE visible
31 Jul 5.4 22:34:02 10° NW 22:35:46 17° WNW 22:35:46 17° WNW visible
01 Aug 4.3 20:49:51 10° NNE 20:52:32 20° ENE 20:52:32 20° ENE visible
01 Aug 5.3 22:25:59 10° NW 22:28:01 18° WNW 22:28:01 18° WNW visible
